        P/1819 W1 = 2003 WY25 (Blanpain)
    Epoch 1946 Jan. 20.0 TT = JDT 2431840.5
    T 1946 Feb. 8.60449 TT                                  MPC
    q   0.9347105            (2000.0)            P               Q
    n   0.18796178     Peri.  359.20995     +0.27638088     -0.94731517
    a   3.0182580      Node    74.73448     +0.88266230     +0.18357834
    e   0.6903146      Incl.    9.66043     +0.38015901     +0.26247470
    P   5.24
    From 275 observations 1819 Dec. 14-2013 July 6, mean residual 0".77.
       Assumed non-gravitational parameters A1 = +0.10 +/- 0.00,
       A2 = -0.0054 +/- 0.0001 due to S. Nakano.
    
        P/1819 W1 = 2003 WY25 (Blanpain)
    Epoch 1940 Nov. 27.0 TT = JDT 2429960.5
    T 1940 Nov. 12.04574 TT                                 MPC
    q   0.9307291            (2000.0)            P               Q
    n   0.18827579     Peri.  359.16347     +0.27688260     -0.94712994
    a   3.0149011      Node    74.75035     +0.88258491     +0.18395627
    e   0.6912903      Incl.    9.67332     +0.37997356     +0.26287823
    P   5.23
    From 275 observations 1819 Dec. 14-2013 July 6, mean residual 0".77.
       Assumed non-gravitational parameters A1 = +0.10 +/- 0.00,
       A2 = -0.0054 +/- 0.0001 due to S. Nakano.
    
        P/1819 W1 = 2003 WY25 (Blanpain)
    Epoch 1935 Aug. 26.0 TT = JDT 2428040.5
    T 1935 Aug. 20.67104 TT                                 MPC
    q   0.9298561            (2000.0)            P               Q
    n   0.18834643     Peri.  359.18716     +0.27666950     -0.94719672
    a   3.0141472      Node    74.73971     +0.88261365     +0.18376098
    e   0.6915028      Incl.    9.67223     +0.38006201     +0.26277421
    P   5.23
    From 275 observations 1819 Dec. 14-2013 July 6, mean residual 0".77.
       Assumed non-gravitational parameters A1 = +0.10 +/- 0.00,
       A2 = -0.0054 +/- 0.0001 due to S. Nakano.
    
        P/1819 W1 = 2003 WY25 (Blanpain)
    Epoch 1930 May 24.0 TT = JDT 2426120.5
    T 1930 May 29.84759 TT                                  MPC
    q   0.9262551            (2000.0)            P               Q
    n   0.18860751     Peri.  359.22062     +0.27615726     -0.94731156
    a   3.0113650      Node    74.73724     +0.88271115     +0.18319010
    e   0.6924135      Incl.    9.68453     +0.38020808     +0.26275881
    P   5.23
    From 275 observations 1819 Dec. 14-2013 July 6, mean residual 0".77.
       Assumed non-gravitational parameters A1 = +0.10 +/- 0.00,
       A2 = -0.0054 +/- 0.0001 due to S. Nakano.
    
        P/1819 W1 = 2003 WY25 (Blanpain)
    Epoch 1925 Feb. 19.0 TT = JDT 2424200.5
    T 1925 Mar. 5.74413 TT                                  MPC
    q   0.9312193            (2000.0)            P               Q
    n   0.18817752     Peri.  359.19017     +0.27648288     -0.94725332
    a   3.0159506      Node    74.74788     +0.88265933     +0.18359928
    e   0.6912352      Incl.    9.67111     +0.38009174     +0.26268318
    P   5.24
    From 275 observations 1819 Dec. 14-2013 July 6, mean residual 0".77.
       Assumed non-gravitational parameters A1 = +0.10 +/- 0.00,
       A2 = -0.0054 +/- 0.0001 due to S. Nakano.
    
        P/1819 W1 = 2003 WY25 (Blanpain)
    Epoch 1919 Dec. 28.0 TT = JDT 2422320.5
    T 1919 Dec.  9.02371 TT                                 MPC
    q   0.9368227            (2000.0)            P               Q
    n   0.18760982     Peri.  359.20124     +0.27593994     -0.94743731
    a   3.0220316      Node    74.76935     +0.88278869     +0.18317875
    e   0.6900023      Incl.    9.66106     +0.38018584     +0.26231295
    P   5.25
    From 275 observations 1819 Dec. 14-2013 July 6, mean residual 0".77.
       Assumed non-gravitational parameters A1 = +0.10 +/- 0.00,
       A2 = -0.0054 +/- 0.0001 due to S. Nakano.
    
        P/1819 W1 = 2003 WY25 (Blanpain)
    Epoch 1914 Sept. 25.0 TT = JDT 2420400.5
    T 1914 Sept. 6.84392 TT                                 MPC
    q   0.9392928            (2000.0)            P               Q
    n   0.18762840     Peri.  359.15000     +0.27600561     -0.94741340
    a   3.0218321      Node    74.81595     +0.88283070     +0.18326491
    e   0.6891645      Incl.    9.66059     +0.38004061     +0.26233913
    P   5.25
    From 275 observations 1819 Dec. 14-2013 July 6, mean residual 0".77.
       Assumed non-gravitational parameters A1 = +0.10 +/- 0.00,
       A2 = -0.0054 +/- 0.0001 due to S. Nakano.
    
        P/1819 W1 = 2003 WY25 (Blanpain)
    Epoch 1909 Apr. 4.0 TT = JDT 2418400.5
    T 1909 Mar. 26.45096 TT                                 MPC
    q   1.0423504            (2000.0)            P               Q
    n   0.17978765     Peri.  356.50970     +0.29727312     -0.93968285
    a   3.1090627      Node    76.14213     +0.88017090     +0.20102799
    e   0.6647381      Incl.   10.03566     +0.37003768     +0.27673795
    P   5.48
    From 275 observations 1819 Dec. 14-2013 July 6, mean residual 0".77.
       Assumed non-gravitational parameters A1 = +0.10 +/- 0.00,
       A2 = -0.0054 +/- 0.0001 due to S. Nakano.
    
        P/1819 W1 = 2003 WY25 (Blanpain)
    Epoch 1903 Oct. 13.0 TT = JDT 2416400.5
    T 1903 Sept. 30.40198 TT                                MPC
    q   1.0416086            (2000.0)            P               Q
    n   0.17985682     Peri.  356.42748     +0.29798233     -0.93944699
    a   3.1082656      Node    76.18046     +0.88006558     +0.20169881
    e   0.6648907      Incl.   10.03771     +0.36971759     +0.27705045
    P   5.48
    From 275 observations 1819 Dec. 14-2013 July 6, mean residual 0".77.
       Assumed non-gravitational parameters A1 = +0.10 +/- 0.00,
       A2 = -0.0054 +/- 0.0001 due to S. Nakano.
    
        P/1819 W1 = 2003 WY25 (Blanpain)
    Epoch 1898 Apr. 21.0 TT = JDT 2414400.5
    T 1898 Apr. 22.33810 TT                                 MPC
    q   0.9309649            (2000.0)            P               Q
    n   0.18785311     Peri.  353.85763     +0.31681075     -0.93399571
    a   3.0194218      Node    77.58124     +0.87726163     +0.22233215
    e   0.6916745      Incl.    9.73741     +0.36061471     +0.27967916
    P   5.25
    From 275 observations 1819 Dec. 14-2013 July 6, mean residual 0".77.
       Assumed non-gravitational parameters A1 = +0.10 +/- 0.00,
       A2 = -0.0054 +/- 0.0001 due to S. Nakano.
    
        P/1819 W1 = 2003 WY25 (Blanpain)
    Epoch 1893 Jan. 17.0 TT = JDT 2412480.5
    T 1893 Jan. 22.10224 TT                                 MPC
    q   0.9281010            (2000.0)            P               Q
    n   0.18814934     Peri.  353.79670     +0.31744757     -0.93375368
    a   3.0162518      Node    77.60262     +0.87713976     +0.22288720
    e   0.6922999      Incl.    9.74527     +0.36035105     +0.28004528
    P   5.24
    From 275 observations 1819 Dec. 14-2013 July 6, mean residual 0".77.
       Assumed non-gravitational parameters A1 = +0.10 +/- 0.00,
       A2 = -0.0054 +/- 0.0001 due to S. Nakano.
    
        P/1819 W1 = 2003 WY25 (Blanpain)
    Epoch 1887 Oct. 16.0 TT = JDT 2410560.5
    T 1887 Oct. 31.27711 TT                                 MPC
    q   0.9236550            (2000.0)            P               Q
    n   0.18847376     Peri.  353.80818     +0.31734538     -0.93376959
    a   3.0127895      Node    77.59737     +0.87716294     +0.22274185
    e   0.6934220      Incl.    9.75180     +0.36038463     +0.28010786
    P   5.23
    From 275 observations 1819 Dec. 14-2013 July 6, mean residual 0".77.
       Assumed non-gravitational parameters A1 = +0.10 +/- 0.00,
       A2 = -0.0054 +/- 0.0001 due to S. Nakano.
    
        P/1819 W1 = 2003 WY25 (Blanpain)
    Epoch 1882 Aug. 23.0 TT = JDT 2408680.5
    T 1882 Aug. 10.25779 TT                                 MPC
    q   0.9197824            (2000.0)            P               Q
    n   0.18877436     Peri.  353.81907     +0.31725341     -0.93376446
    a   3.0095903      Node    77.59197     +0.87718776     +0.22256418
    e   0.6943828      Incl.    9.76422     +0.36040520     +0.28026616
    P   5.22
    From 275 observations 1819 Dec. 14-2013 July 6, mean residual 0".77.
       Assumed non-gravitational parameters A1 = +0.10 +/- 0.00,
       A2 = -0.0054 +/- 0.0001 due to S. Nakano.
    
        P/1819 W1 = 2003 WY25 (Blanpain)
    Epoch 1877 May 21.0 TT = JDT 2406760.5
    T 1877 May 19.74047 TT                                  MPC
    q   0.9244984            (2000.0)            P               Q
    n   0.18835295     Peri.  353.81411     +0.31719565     -0.93382810
    a   3.0140776      Node    77.60064     +0.87720039     +0.22262219
    e   0.6932732      Incl.    9.74911     +0.36042529     +0.28000793
    P   5.23
    From 275 observations 1819 Dec. 14-2013 July 6, mean residual 0".77.
       Assumed non-gravitational parameters A1 = +0.10 +/- 0.00,
       A2 = -0.0054 +/- 0.0001 due to S. Nakano.
    
        P/1819 W1 = 2003 WY25 (Blanpain)
    Epoch 1872 Feb. 17.0 TT = JDT 2404840.5
    T 1872 Feb. 25.18391 TT                                 MPC
    q   0.9269781            (2000.0)            P               Q
    n   0.18815430     Peri.  353.85004     +0.31655903     -0.93405895
    a   3.0161987      Node    77.60380     +0.87735184     +0.22206231
    e   0.6926668      Incl.    9.74400     +0.36061631     +0.27968235
    P   5.24
    From 275 observations 1819 Dec. 14-2013 July 6, mean residual 0".77.
       Assumed non-gravitational parameters A1 = +0.10 +/- 0.00,
       A2 = -0.0054 +/- 0.0001 due to S. Nakano.
    
